TimePST,TemperatureF,Dew PointF,Humidity,Sea Level PressureIn,VisibilityMPH,Wind Direction,Wind SpeedMPH,Gust SpeedMPH,PrecipitationIn,Events,Conditions,WindDirDegrees,DateUTC
12:53 AM,35.1,28.9,78,30.25,9.0,Calm,Calm,-,N/A,,Clear,0,2014-01-16 08:53:00
1:53 AM,34.0,28.9,82,30.25,9.0,Calm,Calm,-,N/A,,Clear,0,2014-01-16 09:53:00
2:53 AM,30.9,27.0,85,30.26,9.0,Calm,Calm,-,N/A,,Clear,0,2014-01-16 10:53:00
3:53 AM,30.9,27.0,85,30.24,10.0,Calm,Calm,-,N/A,,Clear,0,2014-01-16 11:53:00
4:53 AM,32.0,27.0,82,30.24,10.0,WNW,3.5,-,N/A,,Clear,300,2014-01-16 12:53:00
5:53 AM,35.1,27.0,72,30.25,10.0,Calm,Calm,-,N/A,,Clear,0,2014-01-16 13:53:00
6:53 AM,33.1,24.1,70,30.25,10.0,Calm,Calm,-,N/A,,Clear,0,2014-01-16 14:53:00
7:53 AM,37.0,24.1,59,30.26,10.0,Calm,Calm,-,N/A,,Clear,0,2014-01-16 15:53:00
8:53 AM,48.0,27.0,44,30.28,10.0,East,3.5,-,N/A,,Clear,80,2014-01-16 16:53:00
9:53 AM,53.1,25.0,34,30.29,10.0,NNE,3.5,-,N/A,,Clear,20,2014-01-16 17:53:00
10:53 AM,57.9,28.0,32,30.27,10.0,Calm,Calm,-,N/A,,Clear,0,2014-01-16 18:53:00
11:53 AM,64.9,25.0,22,30.24,10.0,NNE,3.5,-,N/A,,Clear,20,2014-01-16 19:53:00
12:53 PM,68.0,21.9,17,30.19,10.0,Variable,3.5,-,N/A,,Clear,0,2014-01-16 20:53:00
1:53 PM,70.0,21.9,16,30.17,10.0,ENE,6.9,-,N/A,,Clear,60,2014-01-16 21:53:00
2:53 PM,71.1,21.0,15,30.16,10.0,East,4.6,-,N/A,,Clear,80,2014-01-16 22:53:00
3:53 PM,71.1,21.9,16,30.15,10.0,Variable,3.5,-,N/A,,Clear,0,2014-01-16 23:53:00
4:53 PM,63.0,36.0,37,30.15,8.0,ESE,3.5,-,N/A,,Clear,120,2014-01-17 00:53:00
5:53 PM,48.9,32.0,52,30.16,9.0,WSW,3.5,-,N/A,,Clear,240,2014-01-17 01:53:00
6:53 PM,46.0,32.0,58,30.16,9.0,WSW,3.5,-,N/A,,Clear,240,2014-01-17 02:53:00
7:53 PM,42.1,30.0,62,30.16,10.0,Calm,Calm,-,N/A,,Clear,0,2014-01-17 03:53:00
8:53 PM,41.0,28.9,62,30.16,9.0,Calm,Calm,-,N/A,,Clear,0,2014-01-17 04:53:00
9:53 PM,39.9,30.0,68,30.16,9.0,Calm,Calm,-,N/A,,Clear,0,2014-01-17 05:53:00
10:53 PM,36.0,28.0,73,30.17,8.0,Calm,Calm,-,N/A,,Clear,0,2014-01-17 06:53:00
11:53 PM,34.0,28.0,79,30.18,8.0,Calm,Calm,-,N/A,,Clear,0,2014-01-17 07:53:00